Weather History for Indianapolis Mount Comfort, IN

Change the Weather History Date:

Saturday, January 18, 2014

  Actual Average (KEYE) Record (KEYE)
Temperature  
Mean Temperature 19 °F 28 °F  
Max Temperature 26 °F 35 °F 42 °F (1999)
Min Temperature 12 °F 21 °F -2 °F (1997)
Degree Days  
Heating Degree Days 46 37  
Month to date heating degree days 666  
Since 1 July heating degree days 2722  
Cooling Degree Days 0 0  
Month to date cooling degree days 0  
Year to date cooling degree days 0  
Moisture  
Dew Point 15 °F    
Average Humidity 89    
Maximum Humidity 100    
Minimum Humidity 74    
Precipitation  
Precipitation 0.00 in 0.06 in 0.23 in (2011)
Month to date precipitation 1.72  
Year to date precipitation 1.72  
Sea Level Pressure  
Sea Level Pressure 29.89 in    
Wind  
Wind Speed 8 mph (South)    
Max Wind Speed 16 mph    
Max Gust Speed 22 mph    
Visibility 5 miles    
Events      
T = Trace of Precipitation, MM = Missing Value Source: NWS Daily Summary

Daily Weather History Graph

Daily Weather History Graph

Search for Another Location

Airport:

Trip Planner

Search our weather history database for the weather conditions in past years. The results will help you decide how hot, cold, wet, or windy it might be!

Date:

Astronomy

Jan. 18, 2014 Rise Set
Actual Time 8:01 AM EST 5:46 PM EST
Civil Twilight 7:32 AM EST 6:16 PM EST
Nautical Twilight 6:59 AM EST 6:49 PM EST
Astronomical Twilight 6:26 AM EST 7:21 PM EST
Moon 8:27 PM EST (1/18) 9:01 AM EST (1/18)
Length of Visible Light 10h 43m
Length of Day
9h 44m
Waning Gibbous, 94% of the Moon is Illuminated
Jan 18
Waning Gibbous
Jan 24
Last Quarter
Jan 30
New
Feb 6
First Quarter
Feb 14
Full

Hourly Weather History & Observations

Time (EST) Temp. Windchill Dew Point Humidity Pressure Visibility Wind Dir Wind Speed Gust Speed Precip Events Conditions
12:05 AM 12.2 °F 0.7 °F 10.4 °F 92% 30.02 in 3.0 mi SW 8.1 mph - N/A   Overcast
12:34 AM 12.2 °F 1.7 °F 10.4 °F 92% 30.01 in 4.0 mi SW 6.9 mph - N/A   Overcast
12:55 AM 14.0 °F 3.9 °F 10.4 °F 86% 30.00 in 5.0 mi SW 6.9 mph - N/A   Overcast
1:14 AM 14.0 °F 3.9 °F 10.4 °F 86% 30.00 in 5.0 mi SW 6.9 mph - N/A   Overcast
1:34 AM 14.0 °F 3.9 °F 10.4 °F 86% 30.00 in 4.0 mi SW 6.9 mph - N/A   Overcast
1:55 AM 14.0 °F 5.1 °F 10.4 °F 86% 29.99 in 4.0 mi SW 5.8 mph - N/A   Overcast
2:14 AM 14.0 °F 5.1 °F 10.4 °F 86% 29.99 in 3.0 mi SW 5.8 mph - N/A   Overcast
2:34 AM 14.0 °F 3.9 °F 10.4 °F 86% 30.00 in 4.0 mi SW 6.9 mph - N/A   Overcast
2:55 AM 14.0 °F 5.1 °F 10.4 °F 86% 30.00 in 5.0 mi SW 5.8 mph - N/A   Overcast
3:14 AM 14.0 °F 3.9 °F 10.4 °F 86% 30.00 in 5.0 mi SW 6.9 mph - N/A   Mostly Cloudy
3:35 AM 14.0 °F 3.9 °F 10.4 °F 86% 30.00 in 5.0 mi SW 6.9 mph - N/A   Overcast
3:55 AM 14.0 °F 2.9 °F 10.4 °F 86% 30.00 in 7.0 mi SW 8.1 mph - N/A   Overcast
4:14 AM 14.0 °F 3.9 °F 10.4 °F 86% 29.99 in 7.0 mi SW 6.9 mph - N/A   Mostly Cloudy
4:35 AM 14.0 °F 3.9 °F 10.4 °F 86% 29.99 in 5.0 mi SW 6.9 mph - N/A   Overcast
4:55 AM 14.0 °F 5.1 °F 10.4 °F 86% 29.98 in 7.0 mi SW 5.8 mph - N/A   Overcast
5:14 AM 14.0 °F 5.1 °F 10.4 °F 86% 29.98 in 7.0 mi SSW 5.8 mph - N/A   Overcast
5:35 AM 14.0 °F 6.5 °F 10.4 °F 86% 29.98 in 4.0 mi SSW 4.6 mph - N/A   Overcast
5:55 AM 14.0 °F 5.1 °F 10.4 °F 86% 29.99 in 7.0 mi SW 5.8 mph - N/A   Overcast
6:14 AM 14.0 °F 3.9 °F 12.2 °F 93% 29.99 in 5.0 mi SSW 6.9 mph - N/A   Mostly Cloudy
6:35 AM 14.0 °F 5.1 °F 12.2 °F 93% 29.99 in 4.0 mi SSW 5.8 mph - N/A   Overcast
6:54 AM 14.0 °F 5.1 °F 12.2 °F 93% 29.98 in 7.0 mi SSW 5.8 mph - N/A   Mostly Cloudy
7:14 AM 14.0 °F 5.1 °F 12.2 °F 93% 29.98 in 5.0 mi SSW 5.8 mph - N/A   Overcast
7:35 AM 14.0 °F 5.1 °F 12.2 °F 93% 29.97 in 7.0 mi SSW 5.8 mph - N/A   Mostly Cloudy
7:54 AM 15.8 °F 5.1 °F 12.2 °F 86% 29.98 in 7.0 mi SW 8.1 mph - N/A   Mostly Cloudy
8:14 AM 15.8 °F 7.2 °F 12.2 °F 86% 29.98 in 7.0 mi SSW 5.8 mph - N/A   Mostly Cloudy
8:35 AM 15.8 °F 7.2 °F 12.2 °F 86% 29.97 in 5.0 mi SSW 5.8 mph - N/A   Mostly Cloudy
8:54 AM 15.8 °F 5.1 °F 14.0 °F 93% 29.98 in 2.5 mi SSW 8.1 mph - N/A   Overcast
9:14 AM 15.8 °F 4.2 °F 12.2 °F 86% 29.97 in 5.0 mi SW 9.2 mph - N/A   Overcast
9:35 AM 17.6 °F 6.4 °F 12.2 °F 79% 29.96 in 10.0 mi SSW 9.2 mph - N/A   Mostly Cloudy
9:54 AM 17.6 °F 6.4 °F 12.2 °F 79% 29.96 in 10.0 mi South 9.2 mph - N/A   Scattered Clouds
10:14 AM 19.4 °F 7.9 °F 12.2 °F 74% 29.96 in 10.0 mi South 10.4 mph - N/A   Clear
10:35 AM 19.4 °F 7.9 °F 12.2 °F 74% 29.96 in 10.0 mi SSW 10.4 mph - N/A   Clear
10:54 AM 19.4 °F 7.2 °F 14.0 °F 80% 29.96 in 10.0 mi SSW 11.5 mph - N/A   Clear
11:14 AM 19.4 °F 7.9 °F 14.0 °F 80% 29.96 in 10.0 mi South 10.4 mph - N/A   Clear
11:35 AM 19.4 °F 7.9 °F 14.0 °F 80% 29.94 in 10.0 mi South 10.4 mph - N/A   Scattered Clouds
11:54 AM 19.4 °F 7.2 °F 14.0 °F 80% 29.92 in 10.0 mi South 11.5 mph 17.3 mph N/A   Scattered Clouds
12:14 PM 19.4 °F 7.2 °F 14.0 °F 80% 29.90 in 10.0 mi South 11.5 mph 17.3 mph N/A   Scattered Clouds
12:34 PM 21.2 °F 10.9 °F 14.0 °F 74% 29.88 in 10.0 mi South 9.2 mph 16.1 mph N/A   Clear
12:54 PM 21.2 °F 10.1 °F 14.0 °F 74% 29.86 in 10.0 mi South 10.4 mph - N/A   Clear
1:15 PM 21.2 °F 8.9 °F 14.0 °F 74% 29.85 in 10.0 mi South 12.7 mph 17.3 mph N/A   Clear
1:34 PM 21.2 °F 8.9 °F 14.0 °F 74% 29.84 in 10.0 mi South 12.7 mph - N/A   Clear
1:54 PM 21.2 °F 8.3 °F 14.0 °F 74% 29.84 in 10.0 mi South 13.8 mph 17.3 mph N/A   Clear
2:15 PM 21.2 °F 10.9 °F 15.8 °F 80% 29.85 in 1.5 mi South 9.2 mph 16.1 mph N/A   Mostly Cloudy
2:34 PM 21.2 °F 10.9 °F 17.6 °F 86% 29.84 in 1.0 mi South 9.2 mph - N/A   Overcast
2:54 PM 21.2 °F 8.9 °F 19.4 °F 93% 29.82 in 0.8 mi SSE 12.7 mph - N/A   Overcast
3:15 PM 21.2 °F 7.8 °F 19.4 °F 93% 29.79 in 0.8 mi SE 15.0 mph - N/A   Overcast
3:34 PM 21.2 °F 8.3 °F 19.4 °F 93% 29.78 in 1.8 mi SE 13.8 mph - N/A   Overcast
3:54 PM 21.2 °F 7.3 °F 19.4 °F 93% 29.76 in 0.8 mi SE 16.1 mph 21.9 mph N/A   Overcast
4:15 PM 21.2 °F 8.9 °F 21.2 °F 100% 29.77 in 1.5 mi SE 12.7 mph - N/A   Overcast
4:34 PM 21.2 °F 9.5 °F 21.2 °F 100% 29.78 in 1.0 mi SSE 11.5 mph - N/A   Overcast
4:54 PM 21.2 °F 9.5 °F 21.2 °F 100% 29.78 in 0.8 mi SSE 11.5 mph - N/A   Overcast
5:15 PM 21.2 °F 9.5 °F 21.2 °F 100% 29.78 in 1.0 mi SSE 11.5 mph - N/A   Overcast
5:34 PM 23.0 °F 13.1 °F 23.0 °F 100% 29.79 in 1.0 mi SSE 9.2 mph - N/A   Overcast
5:55 PM 21.2 °F 10.1 °F 21.2 °F 100% 29.79 in 1.2 mi SE 10.4 mph - N/A   Overcast
6:14 PM 23.0 °F 13.9 °F 23.0 °F 100% 29.79 in 2.0 mi SSE 8.1 mph - N/A   Overcast
6:34 PM 23.0 °F 13.9 °F 23.0 °F 100% 29.79 in 2.0 mi SSE 8.1 mph - N/A   Overcast
6:55 PM 23.0 °F 13.1 °F 23.0 °F 100% 29.79 in 2.0 mi SSE 9.2 mph - N/A   Overcast
7:14 PM 23.0 °F 13.9 °F 23.0 °F 100% 29.79 in 7.0 mi SSE 8.1 mph - N/A   Overcast
7:34 PM 23.0 °F 15.8 °F 23.0 °F 100% 29.78 in 4.0 mi SSE 5.8 mph - N/A   Overcast
7:55 PM 23.0 °F 13.9 °F 23.0 °F 100% 29.77 in 2.5 mi SE 8.1 mph - N/A   Overcast
8:14 PM 23.0 °F 13.9 °F 23.0 °F 100% 29.76 in 1.8 mi SSE 8.1 mph - N/A   Overcast
8:34 PM 23.0 °F 13.1 °F 23.0 °F 100% 29.76 in 5.0 mi SE 9.2 mph - N/A   Overcast
8:55 PM 24.8 °F 16.9 °F 24.8 °F 100% 29.76 in 3.0 mi SSE 6.9 mph - N/A   Overcast
9:14 PM 24.8 °F 16.1 °F - N/A% 29.75 in 7.0 mi SSE 8.1 mph - N/A   Overcast
9:34 PM 24.8 °F 16.9 °F 24.8 °F 100% 29.76 in 5.0 mi South 6.9 mph - N/A   Overcast
9:55 PM 24.8 °F 16.9 °F 24.8 °F 100% 29.75 in 4.0 mi South 6.9 mph - N/A   Overcast
10:14 PM 24.8 °F 17.9 °F - N/A% 29.75 in 3.0 mi South 5.8 mph - N/A   Overcast
10:34 PM 24.8 °F 19.1 °F - N/A% 29.75 in 5.0 mi South 4.6 mph - N/A   Overcast
10:55 PM 24.8 °F 19.1 °F - N/A% 29.76 in 5.0 mi SSW 4.6 mph - N/A   Overcast
11:14 PM 26.6 °F 20.0 °F - N/A% 29.75 in 10.0 mi South 5.8 mph - N/A   Overcast
11:34 PM 26.6 °F 20.0 °F - N/A% 29.75 in 7.0 mi South 5.8 mph - N/A   Overcast
11:55 PM 26.6 °F 21.2 °F - N/A% 29.75 in 7.0 mi SSW 4.6 mph - N/A   Overcast